Weather History for Ionia, MI

Change the Weather History Date:

Sunday, March 10, 2013

  Actual Average (KGRR) Record (KGRR)
Temperature  
Mean Temperature 43 °F 33 °F  
Max Temperature 51 °F 42 °F 69 °F (1894)
Min Temperature 35 °F 25 °F 3 °F (1972)
Degree Days  
Heating Degree Days 22 32  
Month to date heating degree days 332  
Since 1 July heating degree days 5109  
Cooling Degree Days 0 0  
Month to date cooling degree days 0  
Year to date cooling degree days 0  
Moisture  
Dew Point 39 °F    
Average Humidity 82    
Maximum Humidity 100    
Minimum Humidity 71    
Precipitation  
Precipitation 0.09 in 0.07 in 0.68 in (1992)
Month to date precipitation 0.73  
Year to date precipitation 4.61  
Snow  
Snow 0.00 in 0.30 in 6.20 in (1993)
Month to date snowfall 3.8  
Since 1 July snowfall 68.6  
Snow Depth -    
Sea Level Pressure  
Sea Level Pressure 29.84 in    
Wind  
Wind Speed 8 mph (SSE)    
Max Wind Speed 16 mph    
Max Gust Speed 20 mph    
Visibility 9 miles    
Events Rain    
T = Trace of Precipitation, MM = Missing Value Source: NWS Daily Summary

Daily Weather History Graph

Daily Weather History Graph

Search for Another Location

Airport:

Trip Planner

Search our weather history database for the weather conditions in past years. The results will help you decide how hot, cold, wet, or windy it might be!

Date:

Astronomy

Mar. 10, 2013 Rise Set
Actual Time 8:00 AM EDT 7:40 PM EDT
Civil Twilight 7:32 AM EDT 8:09 PM EDT
Nautical Twilight 6:59 AM EDT 8:42 PM EDT
Astronomical Twilight 6:26 AM EDT 9:15 PM EDT
Moon 7:01 AM EDT (3/10) 6:47 PM EDT (3/10)
Length of Visible Light 12h 36m
Length of Day
11h 40m
Waning Crescent, 2% of the Moon is Illuminated
Mar 10
Waning Crescent
Mar 11
New
Mar 19
First Quarter
Mar 27
Full
Apr 3
Last Quarter

Hourly Weather History & Observations

Time (EDT) Temp. Windchill Dew Point Humidity Pressure Visibility Wind Dir Wind Speed Gust Speed Precip Events Conditions
12:37 AM 37.4 °F 30.3 °F 33.8 °F 87% 29.95 in 7.0 mi SE 10.4 mph - N/A   Scattered Clouds
12:55 AM 37.4 °F 31.4 °F 33.8 °F 87% 29.94 in 7.0 mi SE 8.1 mph - N/A   Scattered Clouds
1:20 AM 37.4 °F 30.8 °F 33.8 °F 87% 29.93 in 7.0 mi SSE 9.2 mph - N/A   Scattered Clouds
1:34 AM 37.4 °F 31.4 °F 33.8 °F 87% 29.93 in 7.0 mi SSE 8.1 mph - N/A   Mostly Cloudy
1:55 AM 37.4 °F 32.8 °F 33.8 °F 87% 29.93 in 7.0 mi SSE 5.8 mph - N/A   Overcast
3:15 AM 35.6 °F 29.9 °F 33.8 °F 93% 29.92 in 7.0 mi SSE 6.9 mph - N/A   Overcast
3:35 AM 37.4 °F 31.4 °F 33.8 °F 87% 29.91 in 7.0 mi SE 8.1 mph - N/A   Overcast
3:55 AM 37.4 °F 30.8 °F 33.8 °F 87% 29.90 in 10.0 mi SSE 9.2 mph - N/A   Overcast
4:15 AM 37.4 °F 31.4 °F 33.8 °F 87% 29.89 in 10.0 mi SSE 8.1 mph - N/A   Overcast
4:55 AM 39.2 °F 33.6 °F 33.8 °F 81% 29.88 in 10.0 mi SSE 8.1 mph - N/A   Overcast
5:15 AM 39.2 °F 35.0 °F 33.8 °F 81% 29.88 in 10.0 mi SSE 5.8 mph - N/A   Overcast
5:40 AM 41.0 °F 35.2 °F 33.8 °F 76% 29.87 in 10.0 mi South 9.2 mph - N/A   Overcast
5:55 AM 41.0 °F 35.2 °F 33.8 °F 76% 29.88 in 10.0 mi South 9.2 mph - N/A   Overcast
6:15 AM 41.0 °F 35.2 °F 33.8 °F 76% 29.88 in 10.0 mi South 9.2 mph - N/A   Overcast
6:35 AM 41.0 °F 38.0 °F 33.8 °F 76% 29.88 in 10.0 mi South 4.6 mph - N/A   Overcast
7:00 AM 41.0 °F 34.7 °F 33.8 °F 76% 29.89 in 10.0 mi South 10.4 mph - N/A   Overcast
7:35 AM - - - N/A% - 10.0 mi South 8.1 mph - N/A Rain Light Rain
7:56 AM 41.0 °F 34.7 °F 35.6 °F 81% 29.90 in 10.0 mi South 10.4 mph - N/A Rain Rain
8:56 AM 41.0 °F 34.7 °F 41.0 °F 100% 29.88 in 4.0 mi South 10.4 mph - 0.05 in Rain Rain
9:19 AM 41.0 °F 37.1 °F 41.0 °F 100% 29.88 in 7.0 mi South 5.8 mph - N/A   Overcast
9:55 AM 39.2 °F 35.0 °F 39.2 °F 100% 29.87 in 4.0 mi SE 5.8 mph - N/A   Overcast
10:15 AM 41.0 °F 37.1 °F 39.2 °F 93% 29.86 in 5.0 mi SSE 5.8 mph - N/A   Overcast
10:35 AM 41.0 °F 35.8 °F 41.0 °F 100% 29.85 in 7.0 mi SSE 8.1 mph - N/A   Overcast
10:55 AM 42.8 °F 38.6 °F 39.2 °F 87% 29.85 in 10.0 mi South 6.9 mph - N/A   Overcast
11:15 AM 42.8 °F 37.0 °F 39.2 °F 87% 29.85 in 10.0 mi South 10.4 mph - N/A   Overcast
11:35 AM 44.6 °F 39.2 °F 39.2 °F 81% 29.84 in 10.0 mi South 10.4 mph - N/A   Overcast
11:57 AM - - - N/A% - - North - - N/A   Unknown
12:22 PM 46.4 °F 45.2 °F 41.0 °F 81% - 10.0 mi SSW 3.5 mph - N/A   Overcast
12:37 PM 46.4 °F 44.3 °F 39.2 °F 76% 29.85 in 10.0 mi SSW 4.6 mph - N/A   Light Drizzle
1:00 PM 44.6 °F 42.2 °F 39.2 °F 81% 29.86 in 10.0 mi SSW 4.6 mph - N/A Rain Rain
1:17 PM 46.4 °F 45.2 °F 41.0 °F 81% 29.85 in 10.0 mi South 3.5 mph - N/A Rain Light Rain
2:01 PM 48.2 °F - 42.8 °F 82% 29.84 in 10.0 mi Calm Calm - N/A Rain Light Rain
2:17 PM 48.2 °F - 42.8 °F 82% - 10.0 mi Calm Calm - N/A   Overcast
2:35 PM 50.0 °F - 42.8 °F 76% 29.84 in 10.0 mi Calm Calm - N/A   Overcast
2:55 PM 48.2 °F - 42.8 °F 82% 29.85 in 10.0 mi Calm Calm - N/A   Overcast
3:15 PM 50.0 °F - 42.8 °F 76% 29.85 in 10.0 mi South 4.6 mph - N/A   Overcast
3:35 PM 50.0 °F - 44.6 °F 82% 29.84 in 10.0 mi SE 5.8 mph - N/A   Light Drizzle
3:55 PM 50.0 °F - 42.8 °F 76% 29.83 in 10.0 mi Calm Calm - N/A   Overcast
4:15 PM 51.8 °F - 42.8 °F 71% 29.82 in 10.0 mi Calm Calm - N/A   Overcast
4:36 PM 51.8 °F - 42.8 °F 71% 29.81 in 10.0 mi East 5.8 mph - N/A   Overcast
4:55 PM 51.8 °F - 42.8 °F 71% 29.81 in 10.0 mi ESE 3.5 mph - N/A   Overcast
5:16 PM 50.0 °F - 42.8 °F 76% 29.81 in 10.0 mi Calm Calm - N/A   Overcast
5:35 PM 48.2 °F - 42.8 °F 82% 29.81 in 10.0 mi ESE 5.8 mph - N/A   Overcast
5:55 PM 48.2 °F - 42.8 °F 82% 29.81 in 10.0 mi East 4.6 mph - N/A   Overcast
6:15 PM 50.0 °F - 42.8 °F 76% 29.81 in 10.0 mi ESE 8.1 mph - N/A   Overcast
6:35 PM 51.8 °F - 42.8 °F 71% 29.79 in 10.0 mi East 8.1 mph - N/A   Mostly Cloudy
6:55 PM 50.0 °F - 42.8 °F 76% 29.78 in 10.0 mi East 9.2 mph - N/A   Scattered Clouds
7:15 PM 50.0 °F - 42.8 °F 76% 29.77 in 10.0 mi East 6.9 mph - N/A   Clear
7:37 PM 50.0 °F - 41.0 °F 71% 29.79 in 10.0 mi SE 6.9 mph - N/A   Scattered Clouds
7:56 PM - - - N/A% - - ESE 5.8 mph - N/A   Unknown
8:15 PM 44.6 °F 40.7 °F 41.0 °F 87% - 10.0 mi East 6.9 mph - N/A   Mostly Cloudy
8:55 PM 48.2 °F - 41.0 °F 76% 29.76 in 10.0 mi ESE 6.9 mph - N/A   Mostly Cloudy
9:16 PM 46.4 °F 42.9 °F 41.0 °F 81% 29.78 in 10.0 mi South 6.9 mph - N/A Rain Rain
9:35 PM 48.2 °F - 42.8 °F 82% 29.79 in 10.0 mi SSE 11.5 mph - 0.02 in Rain Rain
9:55 PM 46.4 °F 41.1 °F 42.8 °F 87% 29.77 in 10.0 mi SSE 11.5 mph - N/A Rain Rain
10:16 PM - - - N/A% - - SE 11.5 mph - N/A   Unknown
10:36 PM - - - N/A% - 10.0 mi SSE 13.8 mph - N/A Rain Light Rain
10:55 PM 46.4 °F 42.9 °F 42.8 °F 87% 29.74 in 10.0 mi SE 6.9 mph - 0.02 in   Overcast
11:20 PM - - - N/A% - - North - - N/A   Unknown
11:35 PM 44.6 °F 38.4 °F 41.0 °F 87% 29.72 in 10.0 mi SSE 12.7 mph - N/A   Drizzle
11:57 PM 48.2 °F - 41.0 °F 76% 29.72 in 10.0 mi SSE 16.1 mph 19.6 mph N/A   Overcast
12:23 AM 50.0 °F - 41.0 °F 71% 29.70 in 10.0 mi South 11.5 mph 17.3 mph N/A   Overcast
12:35 AM 50.0 °F - 41.0 °F 71% 29.70 in 10.0 mi South 11.5 mph 19.6 mph N/A   Overcast
12:55 AM 50.0 °F - 41.0 °F 71% 29.69 in 10.0 mi SSE 9.2 mph - N/A   Overcast